Location: Unspecified
(40.7945°N, 111.1337°W)
Time: 11:14:43
(UTC-06:00)

Okean 3 - Pass Details

Date: 26 March 2019
Orbit: 577 x 600 km, 82.5° (Epoch: 17 October)

Event Time Altitude Azimuth Distance (km) Brightness Sun altitude
Exits shadow 06:02:57 11° 202° (SSW) 1,883 5.7 -14.9°
Maximum altitude 06:07:01 55° 280° (W) 719 3.6 -14.1°
Drops below altitude 10° 06:11:15 10° 359° (N) 1,946 6.3 -13.3°
Sets 06:13:31 0° 4° (N) 2,853 7.2 -12.9°
